Date,TemperatureHighF,TemperatureAvgF,TemperatureLowF,DewpointHighF,DewpointAvgF,DewpointLowF,HumidityHigh,HumidityAvg,HumidityLow,PressureMaxIn,PressureMinIn,WindSpeedMaxMPH,WindSpeedAvgMPH,GustSpeedMaxMPH,PrecipitationSumIn
2013-2-1,2,-4,-11,-6,-10,-16,80,75,69,29.68,29.52,4,0,4,0.00
2013-2-2,11,0,-12,2,-7,-18,77,73,68,29.62,29.44,4,0,6,0.00
2013-2-3,9,2,-10,2,-4,-16,79,74,67,29.52,29.39,5,0,5,0.00
2013-2-4,13,-2,-18,2,-10,-25,78,70,59,29.54,29.37,3,0,6,0.00
2013-2-5,19,10,0,13,4,-8,82,77,70,29.59,29.21,5,0,6,0.00
2013-2-6,21,11,-3,14,5,-8,83,78,73,29.70,29.58,6,0,6,0.00
2013-2-7,21,19,16,18,15,0,88,86,83,29.77,29.61,9,1,10,0.00
2013-2-8,26,12,3,17,7,-2,85,79,69,29.90,29.77,6,1,6,0.10
2013-2-9,28,16,5,21,10,0,85,78,69,29.87,29.58,12,1,12,0.00
2013-2-10,20,20,20,15,8,0,83,42,83,29.58,29.58,0,0,0,0.00
2013-2-12,14,13,12,10,10,8,86,85,85,29.34,29.32,0,0,0,0.00
2013-2-13,26,17,11,23,13,7,88,87,85,29.32,29.24,0,0,0,0.00
2013-2-14,28,21,11,24,17,6,88,82,79,29.57,29.25,9,1,9,0.00
2013-2-15,17,8,-2,11,2,-8,84,77,70,29.70,29.54,7,0,7,0.00
2013-2-16,12,2,-11,4,-4,-17,81,74,69,29.68,29.63,6,1,6,0.00
2013-2-17,21,2,-20,10,-6,-26,80,69,60,29.67,29.44,8,1,8,0.00
2013-2-18,34,26,15,26,19,5,86,75,68,29.44,29.04,6,0,7,0.00
2013-2-19,25,10,0,21,5,-6,87,78,70,29.64,29.04,12,2,14,0.00
2013-2-20,18,9,0,9,3,-6,79,74,67,29.95,29.64,12,2,12,0.00
2013-2-21,25,12,-7,16,6,-13,84,77,67,29.99,29.72,2,0,6,0.00
2013-2-22,23,19,16,19,16,12,87,85,84,29.72,29.35,0,0,0,0.00
2013-2-23,29,21,12,24,17,8,86,84,80,29.44,29.32,0,0,2,0.02
2013-2-24,31,24,17,24,19,14,87,80,72,29.66,29.44,7,0,7,0.04
2013-2-25,32,28,23,25,22,18,82,78,74,29.69,29.62,7,0,7,0.00
2013-2-26,32,28,14,25,22,10,88,80,72,29.61,29.43,11,4,17,0.00
2013-2-27,29,27,26,25,23,21,85,82,80,29.47,29.35,20,5,21,0.00
2013-2-28,27,25,23,22,20,16,86,81,70,29.66,29.47,13,5,13,0.00